Regional Weather Roundup
Issued by NWS

Home | Current Version | Previous Version | Text Only | Print | Product List | Glossary Off
Versions: 1 2 3 4 5 6 7 8 9 10 11 12 13 14 15 16 17 18 19 20 21 22 23 24 25 26 27 28 29 30 31 32 33 34 35 36 37 38 39 40 41 42 43 44 45 46 47 48 49 50

596
ASUS45 KSLC 170210
RWRUT

UTAH REGIONAL WEATHER ROUNDUP
NATIONAL WEATHER SERVICE SALT LAKE CITY UT
700 PM MST TUE JAN 16 2018

UTZ001>011-023>025-170300-

NORTHERN UTAH

CITY           SKY/WX    TMP DP  RH WIND       PRES   REMARKS
BRIGHAM CITY   PTCLDY    37  29  73 CALM      30.32S
HILL AFB       MOCLDY    37  23  56 N3        30.30R
LOGAN          PTCLDY    33  24  69 CALM      30.32R
OGDEN          PTCLDY    37  24  59 N3        30.30R
SALT LAKE CITY MOCLDY    41  27  57 W7        30.31R
TOOELE VALLEY  MOCLDY    34  30  86 E3        30.31F
WENDOVER       CLEAR     34  25  69 W5        30.32R WCI  30
HEBER CITY       N/A     30  19  64 CALM      30.29R
WEST JORDAN    MOCLDY    37  27  69 CALM      30.32R

$$

UTZ011>015-024>027-170300-

CENTRAL/NORTHEAST UTAH

CITY           SKY/WX    TMP DP  RH WIND       PRES   REMARKS
PROVO AIRPORT  PTCLDY    35  26  69 NE5       30.31R WCI  31
MOAB/CANYONLAN CLEAR     32  18  56 CALM      30.31S
DELTA          CLOUDY    39  30  70 CALM      30.29S
PRICE          PTCLDY    29  19  66 NE7       30.32R WCI  22
ROOSEVELT      PTCLDY    23  10  58 W3        30.37R
VERNAL         CLEAR     23   9  55 NW6       30.34S WCI  16

$$

UTZ013>016-019>022-027-170300-

SOUTHERN UTAH

CITY           SKY/WX    TMP DP  RH WIND       PRES   REMARKS
BRYCE CANYON   CLOUDY    35  24  64 CALM      30.32R
CEDAR CITY     MOCLDY    37  29  72 CALM      30.26S
MILFORD        MOCLDY    39  31  72 N7        30.26S WCI  34
ST GEORGE      MOCLDY    53  37  54 S3        30.22F
HANKSVILLE     PTCLDY    34   9  35 CALM      30.36R
KANAB          MOCLDY    45  21  39 NE1       30.32S
BLANDING         N/A     31  18  58 CALM      30.39S

$$

REGIONAL REPORTS     COLORADO/ARIZONA

CITY           SKY/WX    TMP DP  RH WIND       PRES   REMARKS
CRAIG, CO      CLEAR     12   3  67 CALM      30.33R
GRAND JUNCTION CLEAR     32  17  54 VRB5      30.33R WCI  27
RIFLE, CO      CLEAR     27  17  66 SE3       30.33R
MONTROSE, CO   CLEAR     25  16  68 SE6       30.34R WCI  18
CORTEZ, CO     CLEAR     27  19  72 CALM      30.34R
COLORADO CITY    N/A     45  30  57 SE5       30.29F
PAGE, AZ       PTCLDY    44  17  33 CALM      30.30R
GRAND CANYON   CLOUDY    40  18  41 NE3       30.31R
KINGMAN, AZ    PTCLDY    49  32  52 NE10      30.22R
FLAGSTAFF, AZ  MOCLDY    34  22  61 CALM      30.30R

$$

REGIONAL REPORTS    NEVADA/IDAHO/WYOMING

CITY           SKY/WX    TMP DP  RH WIND       PRES   REMARKS
LAS VEGAS, NV  PTCLDY    59  35  40 SW3       30.18S
ELY, NY        CLEAR     33  22  63 W3        30.29R
ELKO, NV       PTCLDY    35  31  85 CALM      30.28R
POCATELLO, ID  CLOUDY    35  28  75 CALM      30.32S
BURLEY, ID     CLOUDY    39  31  72 VRB6      30.30S WCI  35
FORT BRIDGER,    N/A     28  10  47 CALM      30.32R
EVANSTON, WY   CLEAR     28  15  58 N6        30.30R WCI  22
ROCK SPRINGS,  CLEAR     19   8  62 W8        30.29R WCI   9

$$




USA.gov is the U.S. government's official web portal to all federal, state and local government web resources and services.